| time (UTC) | temp C | wind direction | speed KPH | gust KPH | rain 1hr cm | rain 24hr cm | rain mn cm | humidity % | barometer mb |
| 20260504014601 | 13 | 0 | 0.0 | 3.2 | 0.00 | 0.00 | 0.00 | 58 | 1015.8 |
| 20260504013052 | 13 | 0 | 0.0 | 0.0 | 0.00 | 0.00 | 0.00 | 58 | 1015.7 |
| 20260504011558 | 14 | 0 | 0.0 | 3.2 | 0.00 | 0.00 | 0.00 | 58 | 1015.6 |
| 20260504010057 | 15 | 177 | 0.0 | 3.2 | 0.00 | 0.00 | 0.00 | 55 | 1015.7 |
| 20260504004549 | 16 | 177 | 0.0 | 1.6 | 0.00 | 0.00 | 0.00 | 50 | 1015.6 |
| 20260504003052 | 16 | 0 | 0.0 | 3.2 | 0.00 | 0.00 | 0.00 | 47 | 1015.5 |
| 20260504001548 | 17 | 177 | 0.0 | 4.8 | 0.00 | 0.00 | 0.00 | 45 | 1015.3 |
| 20260504000054 | 17 | 143 | 1.6 | 4.8 | 0.00 | 0.00 | 0.00 | 44 | 1015.1 |
| 20260503234550 | 18 | 178 | 3.2 | 11.3 | 0.00 | 0.00 | 0.00 | 42 | 1015.1 |
| 20260503233046 | 18 | 227 | 4.8 | 11.3 | 0.00 | 0.00 | 0.00 | 41 | 1015.1 |
| 20260503231551 | 18 | 173 | 6.4 | 16.1 | 0.00 | 0.00 | 0.00 | 40 | 1015.3 |
| 20260503230048 | 19 | 196 | 3.2 | 14.5 | 0.00 | 0.00 | 0.00 | 42 | 1015.2 |
| 20260503224546 | 19 | 290 | 4.8 | 11.3 | 0.00 | 0.00 | 0.00 | 37 | 1015.3 |
| 20260503223049 | 20 | 263 | 3.2 | 11.3 | 0.00 | 0.00 | 0.00 | 37 | 1015.4 |
| 20260503221550 | 20 | 203 | 3.2 | 8.0 | 0.00 | 0.00 | 0.00 | 36 | 1015.4 |
| 20260503220056 | 20 | 185 | 6.4 | 14.5 | 0.00 | 0.00 | 0.00 | 40 | 1015.4 |
| 20260503214549 | 20 | 192 | 6.4 | 17.7 | 0.00 | 0.00 | 0.00 | 38 | 1015.6 |
| 20260503213057 | 20 | 256 | 4.8 | 16.1 | 0.00 | 0.00 | 0.00 | 35 | 1015.7 |
| 20260503211553 | 20 | 202 | 4.8 | 16.1 | 0.00 | 0.00 | 0.00 | 39 | 1015.8 |
| 20260503210058 | 20 | 261 | 4.8 | 20.9 | 0.00 | 0.00 | 0.00 | 37 | 1015.7 |
| 20260503204550 | 20 | 271 | 8.0 | 14.5 | 0.00 | 0.00 | 0.00 | 38 | 1016.0 |
| 20260503203101 | 20 | 144 | 3.2 | 14.5 | 0.00 | 0.00 | 0.00 | 40 | 1016.2 |
| 20260503201550 | 20 | 296 | 1.6 | 17.7 | 0.00 | 0.00 | 0.00 | 38 | 1016.6 |
| 20260503200056 | 19 | 188 | 4.8 | 14.5 | 0.00 | 0.00 | 0.00 | 36 | 1017.0 |
| 20260503194549 | 20 | 181 | 3.2 | 14.5 | 0.00 | 0.00 | 0.00 | 39 | 1017.1 |
| 20260503193053 | 19 | 210 | 4.8 | 16.1 | 0.00 | 0.00 | 0.00 | 35 | 1017.2 |
| 20260503191601 | 19 | 176 | 3.2 | 12.9 | 0.00 | 0.00 | 0.00 | 35 | 1017.2 |
| 20260503190056 | 18 | 184 | 6.4 | 16.1 | 0.00 | 0.00 | 0.00 | 37 | 1017.5 |
| 20260503184606 | 18 | 277 | 6.4 | 14.5 | 0.00 | 0.00 | 0.00 | 35 | 1017.7 |
| 20260503183057 | 18 | 146 | 4.8 | 14.5 | 0.00 | 0.00 | 0.00 | 41 | 1017.8 |
| 20260503181606 | 18 | 95 | 3.2 | 9.7 | 0.00 | 0.00 | 0.00 | 37 | 1018.0 |
| 20260503180053 | 18 | 286 | 4.8 | 11.3 | 0.00 | 0.00 | 0.00 | 41 | 1018.2 |
| 20260503174548 | 17 | 283 | 1.6 | 11.3 | 0.00 | 0.00 | 0.00 | 43 | 1018.2 |
| 20260503173059 | 17 | 202 | 4.8 | 16.1 | 0.00 | 0.00 | 0.00 | 39 | 1018.4 |
| 20260503171550 | 17 | 225 | 8.0 | 16.1 | 0.00 | 0.00 | 0.00 | 40 | 1018.8 |
| 20260503081615 | 4 | 0 | 0.0 | 3.2 | 0.00 | 0.00 | 0.00 | 89 | 1016.9 |
| 20260503080103 | 4 | 292 | 0.0 | 3.2 | 0.00 | 0.00 | 0.00 | 88 | 1016.8 |
| 20260503071544 | 5 | 292 | 0.0 | 3.2 | 0.00 | 0.00 | 0.00 | 87 | 1016.6 |
| 20260503054553 | 5 | 255 | 1.6 | 3.2 | 0.00 | 0.00 | 0.00 | 85 | 1016.2 |
| 20260503053054 | 5 | 0 | 0.0 | 3.2 | 0.00 | 0.00 | 0.00 | 85 | 1016.2 |
| 20260503051552 | 6 | 281 | 0.0 | 3.2 | 0.00 | 0.00 | 0.00 | 85 | 1016.2 |
| 20260503050054 | 6 | 0 | 0.0 | 0.0 | 0.00 | 0.00 | 0.00 | 83 | 1016.0 |
| 20260503044554 | 7 | 0 | 0.0 | 0.0 | 0.00 | 0.00 | 0.00 | 81 | 1015.9 |
| 20260503043045 | 7 | 0 | 0.0 | 0.0 | 0.00 | 0.00 | 0.00 | 80 | 1016.1 |
| 20260503041553 | 7 | 0 | 0.0 | 0.0 | 0.00 | 0.00 | 0.00 | 79 | 1016.1 |
| 20260503040054 | 7 | 0 | 0.0 | 0.0 | 0.00 | 0.00 | 0.00 | 77 | 1015.9 |
| 20260503034554 | 8 | 0 | 0.0 | 0.0 | 0.00 | 0.00 | 0.00 | 73 | 1015.7 |
| 20260503033114 | 8 | 0 | 0.0 | 0.0 | 0.00 | 0.00 | 0.00 | 72 | 1015.6 |
| 20260503031556 | 9 | 0 | 0.0 | 3.2 | 0.00 | 0.00 | 0.00 | 70 | 1015.4 |
| 20260503030104 | 10 | 331 | 0.0 | 3.2 | 0.00 | 0.00 | 0.00 | 66 | 1015.2 |
| 20260503024621 | 10 | 331 | 0.0 | 3.2 | 0.00 | 0.00 | 0.00 | 64 | 1015.2 |
| 20260503023100 | 11 | 0 | 1.6 | 3.2 | 0.00 | 0.00 | 0.00 | 63 | 1014.9 |
| 20260503021558 | 11 | 331 | 0.0 | 3.2 | 0.00 | 0.00 | 0.00 | 65 | 1014.8 |
| 20260503020050 | 11 | 18 | 0.0 | 3.2 | 0.00 | 0.00 | 0.00 | 61 | 1014.6 |